WAT2476 KENV-KSLC

Flight info

Callsign WAT2476
Flight time N/A
Altitude 9500
Route DCT
Aircraft C208/L-SDFGR/C

Departure

Time 2026-04-23 02:25
Airport Wendover Airport (KENV)

Arrival

Time N/A
Airport Salt Lake City International Airport (KSLC)
Time Latitude Longitude Altitude Speed Heading
2026-04-23 02:12 40.72784 -114.04050 4227 ft 0 kts 32°
2026-04-23 02:16 40.72788 -114.04041 4227 ft 4 kts 81°
2026-04-23 02:16 40.72780 -114.04029 4227 ft 3 kts 174°
2026-04-23 02:17 40.72723 -114.04062 4227 ft 10 kts 180°
2026-04-23 02:17 40.72649 -114.04062 4227 ft 12 kts 177°
2026-04-23 02:17 40.72568 -114.04033 4227 ft 13 kts 140°
2026-04-23 02:17 40.72491 -114.03933 4228 ft 18 kts 135°
2026-04-23 02:18 40.72394 -114.03805 4228 ft 22 kts 136°
2026-04-23 02:18 40.72279 -114.03652 4229 ft 25 kts 134°
2026-04-23 02:18 40.72154 -114.03487 4230 ft 26 kts 135°
2026-04-23 02:18 40.72026 -114.03320 4230 ft 24 kts 128°
2026-04-23 02:19 40.72006 -114.03121 4230 ft 23 kts 90°
2026-04-23 02:19 40.72003 -114.02909 4230 ft 23 kts 89°
2026-04-23 02:19 40.72003 -114.02693 4231 ft 24 kts 90°
2026-04-23 02:19 40.72003 -114.02472 4231 ft 24 kts 90°
2026-04-23 02:20 40.72004 -114.02248 4232 ft 25 kts 90°
2026-04-23 02:20 40.72004 -114.02020 4231 ft 25 kts 89°
2026-04-23 02:20 40.72005 -114.01781 4231 ft 26 kts 90°
2026-04-23 02:20 40.72005 -114.01543 4230 ft 27 kts 90°
2026-04-23 02:21 40.72006 -114.01298 4231 ft 27 kts 89°
2026-04-23 02:21 40.72005 -114.01051 4231 ft 27 kts 89°
2026-04-23 02:21 40.72006 -114.00810 4232 ft 22 kts 90°
2026-04-23 02:21 40.71986 -114.00753 4232 ft 0 kts 151°
2026-04-23 02:23 40.71957 -114.00744 4232 ft 10 kts 175°
2026-04-23 02:23 40.71898 -114.00776 4231 ft 10 kts 253°
2026-04-23 02:23 40.71896 -114.00930 4231 ft 42 kts 272°
2026-04-23 02:24 40.71893 -114.01620 4237 ft 100 kts 268°
2026-04-23 02:24 40.71967 -114.02560 4452 ft 105 kts 285°
2026-04-23 02:24 40.72088 -114.03530 4650 ft 112 kts 279°
2026-04-23 02:24 40.71977 -114.04602 4813 ft 129 kts 244°
2026-04-23 02:25 40.71185 -114.05255 5009 ft 151 kts 196°
2026-04-23 02:25 40.70117 -114.04850 5200 ft 174 kts 148°
2026-04-23 02:25 40.69414 -114.03522 5399 ft 183 kts 110°
2026-04-23 02:25 40.69373 -114.01855 5598 ft 183 kts 77°
2026-04-23 02:26 40.69513 -114.00767 5731 ft 182 kts 76°
2026-04-23 02:26 40.69716 -113.99120 5937 ft 182 kts 78°
2026-04-23 02:26 40.69890 -113.97478 6143 ft 180 kts 79°
2026-04-23 02:26 40.70056 -113.95851 6344 ft 178 kts 79°
2026-04-23 02:27 40.70278 -113.93701 6605 ft 180 kts 79°
2026-04-23 02:27 40.70392 -113.92595 6734 ft 181 kts 79°
2026-04-23 02:27 40.70560 -113.90951 6939 ft 181 kts 79°
2026-04-23 02:27 40.70727 -113.89302 7140 ft 181 kts 79°
2026-04-23 02:28 40.70893 -113.87680 7338 ft 181 kts 79°
2026-04-23 02:28 40.71060 -113.86038 7536 ft 181 kts 80°
2026-04-23 02:28 40.71227 -113.84396 7735 ft 181 kts 79°
2026-04-23 02:28 40.71396 -113.82733 7935 ft 180 kts 79°
2026-04-23 02:29 40.71559 -113.81127 8129 ft 178 kts 79°
2026-04-23 02:29 40.71723 -113.79510 8327 ft 178 kts 79°
2026-04-23 02:29 40.71889 -113.77869 8523 ft 178 kts 79°
2026-04-23 02:29 40.72051 -113.76257 8725 ft 177 kts 79°
2026-04-23 02:30 40.72211 -113.74670 8920 ft 177 kts 79°
2026-04-23 02:30 40.72374 -113.73058 9120 ft 177 kts 79°
2026-04-23 02:30 40.72536 -113.71441 9322 ft 178 kts 79°
2026-04-23 02:30 40.72697 -113.69826 9493 ft 179 kts 79°
2026-04-23 02:31 40.72864 -113.68149 9502 ft 189 kts 80°
2026-04-23 02:31 40.73039 -113.66398 9500 ft 195 kts 80°
2026-04-23 02:31 40.73214 -113.64604 9499 ft 199 kts 80°
2026-04-23 02:31 40.73396 -113.62783 9501 ft 200 kts 80°
2026-04-23 02:32 40.73577 -113.60960 9500 ft 201 kts 80°
2026-04-23 02:32 40.73760 -113.59128 9500 ft 201 kts 80°
2026-04-23 02:32 40.73943 -113.57292 9500 ft 202 kts 81°
2026-04-23 02:32 40.74122 -113.55458 9500 ft 202 kts 81°
2026-04-23 02:33 40.74297 -113.53623 9500 ft 202 kts 83°
2026-04-23 02:33 40.74421 -113.51778 9499 ft 201 kts 82°
2026-04-23 02:33 40.74570 -113.49964 9499 ft 201 kts 82°
2026-04-23 02:33 40.74714 -113.48121 9500 ft 202 kts 82°
2026-04-23 02:34 40.74809 -113.46875 9500 ft 202 kts 82°
2026-04-23 02:34 40.74990 -113.44435 9489 ft 202 kts 83°
2026-04-23 02:34 40.75129 -113.42590 9487 ft 202 kts 83°